Torna al catalogo

STARLINK-31924

AttivoComunicazioniVLEO
NORAD 59904·PAYLOAD·🇺🇸 United States

Lanciato May 28, 2024 da Cape Canaveral Space Force Station

Loading…

Prossimi Passaggi (prossime 24 ore)

TLE

AggiornatoSource: CelesTrak SupGP

Epoca: Sep 15, 2026, 03:38 UTC

1 59904C 24100V   26258.15187500  .00063128  00000+0  22863-2 0  2584
2 59904  42.9997 135.3088 0001468 273.4844  93.8373 15.27549379    14

Traccia STARLINK-31924 in tempo reale con AllMySat

Download on the App Store